Cloud_Cover
5 5 0 0 0 0 0 0 0 0 0 0 0 0 0 16 6 0 0 0 0 0 0 0 0 0 0 0 10 5 4 4 2 0 0 4 6 3 5 5 2 0 0 0 0
92 45 1 0 5 0 0 0 0 0 0 0 0 0 0 2 0 0 0 0 0 0 0 0 0 0 1 2 1 22 5 2 93 20 5 5 33 65 30 0 0 0 0 0 0
0 2 5 0 5 0 0 0 0 0 0 0 0 0 2 0 0 0 0 0 0 0 0 0 0 0 0 0 2 3 0 3 26 0 0 0 20 5 0 3 0 0 0 1 1
0 0 5 0 0 0 0 0 0 0 0 0 0 0 0 0 0 0 0 0 0 0 0 0 0 0 0 0 1 1 0 0 0 0 0 0 0 0 5 15 5 3 0 0 0
0 0 0 0 0 0 0 0 0 0 0 0 0 0 0 0 0 0 0 0 0 0 0 0 0 0 0 0 0 0 0 0 0 0 0 0 0 0 3 1 1 0 0 0 0
0 0 0 0 0 0 0 0 0 0 0 0 0 0 0 0 0 0 0 0 0 0 0 0 0 0 0 0 0 0 0 0 0 0 0 0 0 0 0 0 0 0 0 0 0
0 0 0 0 0 0 0 0 0 0 0 0 0 0 4 2 0 0 0 0 0 0 0 0 0 0 0 0 0 0 0 0 0 0 0 0 0 0 0 0 0 0 0 0 0
0 0 0 0 0 0 0 0 0 0 0 0 27 99 11 2 0 0 0 0 0 0 0 0 0 0 0 0 0 0 0 0 0 0 0 0 0 0 0 0 0 0 0 0 0
0 0 0 0 0 0 0 0 0 0 0 0 1 5 69 0 0 0 0 0 0 0 0 0 0 0 0 0 0 0 0 0 0 0 0 0 0 0 6 5 2 0 0 0 0
0 0 0 0 0 0 0 0 0 0 0 0 0 0 86 39 5 5 47 0 0 0 0 0 0 0 0 0 0 0 0 0 0 0 0 0 0 0 0 0 0 0 0 0 0
5 0 0 0 0 0 3 0 0 0 0 0 0 0 4 64 76 100 100 67 5 1 4 10 4 0 0 0 0 0 14 76 5 4 0 0 0 0 0 0 0 0 0 0 0
5 0 0 0 0 0 0 0 0 0 0 0 0 0 0 0 6 97 33 100 100 100 100 100 65 0 0 2 5 0 2 98 60 0 0 0 0 0 0 0 0 0 0 0 0
87 5 4 0 0 0 0 0 0 0 0 0 0 0 0 0 0 0 2 3 100 100 100 100 27 0 9 21 12 49 12 60 13 0 0 0 0 0 0 0 0 0 0 1 99
100 96 96 8 0 0 0 0 0 0 0 0 0 0 0 0 0 0 8 5 8 81 100 100 95 67 44 100 99 93 5 62 74 2 0 0 0 0 0 0 0 0 0 0 86
100 100 74 100 56 6 2 0 0 0 0 0 0 0 0 0 0 0 67 99 100 100 100 98 58 96 27 100 42 19 100 62 94 5 0 0 0 0 0 0 0 0 0 28 100
100 76 100 100 100 100 90 31 16 5 5 4 0 0 0 0 0 0 16 100 6 4 100 100 100 100 100 100 100 97 23 100 49 25 4 0 0 0 0 0 0 0 0 40 100
100 100 100 100 100 76 13 48 50 57 54 3 0 0 0 0 0 0 0 1 4 2 10 100 100 100 100 91 48 45 8 100 63 5 2 0 0 0 0 0 0 0 0 27 100
100 100 100 100 100 100 100 13 75 100 8 5 0 0 0 0 0 0 0 0 0 5 95 2 39 100 100 97 69 5 5 100 12 1 0 0 0 0 0 0 0 0 0 26 100
100 100 100 100 100 100 100 46 100 56 5 5 4 1 3 0 0 0 0 0 0 0 42 100 78 96 100 95 5 8 100 99 5 5 0 0 0 0 0 0 0 0 0 84 100
100 100 100 100 100 100 100 100 98 5 5 5 4 4 0 3 5 5 3 3 3 12 5 95 97 62 100 6 56 93 69 5 5 2 5 2 0 0 0 0 0 0 18 100 100
98 75 100 100 100 57 100 61 5 7 5 5 5 0 0 0 4 5 32 56 97 45 5 51 94 99 100 93 35 46 5 5 5 5 5 3 0 0 0 0 0 0 22 100 100
68 64 64 33 66 96 27 35 5 5 5 5 5 5 5 5 2 5 55 96 100 12 9 100 99 100 100 100 89 100 100 100 100 100 5 3 0 0 0 0 0 0 0 100 100
44 37 16 22 83 36 13 20 5 5 5 5 5 5 5 5 2 5 69 92 6 5 43 100 100 100 100 100 100 100 100 100 100 4 0 0 0 0 0 0 0 0 0 100 100
62 5 38 32 10 5 8 5 40 11 5 5 5 5 14 5 12 3 98 100 96 5 87 100 100 40 66 100 100 100 100 84 5 0 0 0 1 0 0 0 0 0 0 32 100
4 6 34 6 7 6 31 66 90 74 5 5 6 5 19 58 97 11 100 100 100 83 19 6 95 99 95 100 100 100 68 50 66 3 0 0 0 0 0 0 0 0 0 0 12
0 0 0 25 74 85 100 100 100 6 5 5 53 43 5 75 100 100 100 100 66 100 100 100 100 100 100 100 100 100 74 48 5 5 5 0 0 0 0 0 0 0 0 0 0
0 0 0 0 5 100 100 100 87 5 17 6 81 98 93 34 100 100 100 81 34 100 100 100 100 100 100 100 100 78 62 5 5 5 4 1 4 0 0 0 0 0 0 0 0